www.pogodaiklimat.ru

Погода и климат >> Архив погоды >> Мьянма >> Виктория-Пойнт


ПОГОДА в Виктория-Пойнт

  • Прогноз погоды в Виктория-Пойнт
  • Монитор погоды в Виктория-Пойнт

АРХИВ ПОГОДЫ в Виктория-Пойнт

Время (UTC), дата Ветер
(напр.,м/с)
 
Видим.   Явления Облачность Т
(С)
Тd
(С)
f
(%)
Тe
(С)
Тes
(С)
Комфортность P
(гПа)
Po
(гПа)
Тmin
(С)
Tmax
(С)
R
(мм)
R24
(мм)
S
(см)
03 10.06 ЮЗ 2 4000 м в посл. час дождь {морось} 10/8 300 м
[Frnb Ac As]
+26.5 +26.5 100 +40 +41 очень
душно
1009.1 1003.7
06 10.06 СЗ 3 4000 м слаб. морось 10/8 300 м
[Frnb Ac As]
+25.5 +25.5 100 +37 +38 очень
душно
1009.6 1004.2
09 10.06 СЗ 5 4000 м слаб. морось 10/8 300 м
[Frnb Ac As]
+26.0 +26.0 100 +39 +39 очень
душно
1007.6 1002.2
12 10.06 ЮЗ 6 4000 м {морось} 10/8 300 м
[Frnb Ac As]
+26.5 +26.5 100 +40 +40 очень
душно
1008.6 1003.2 +26.7 20
15 10.06 ЮЗ 3 4000 м {морось} 10/8 300 м
[Frnb Ac As]
+26.5 +26.5 100 +40 +40 очень
душно
1008.1 1002.7
00 11.06 ЮВ 1 10 км 10/5 600 м
[Cu Sc Ac As Cs]
+26.0 +24.6 92 +37 +37 очень
душно
1008.3 1002.9 +19.5 1
03 11.06 Ю 2 10 км 10/5 600 м
[Cu Sc Ac As Cs]
+26.5 +25.1 92 +38 +42 очень
душно
1010.1 1004.7
06 11.06 ЮЗ 3 10 км 10/4 600 м
[Cu Sc Ac As Cs]
+32.0 +28.1 80 +53 +58 опасность
перегрева
1009.3 1004.0
09 11.06 СВ 5 10 км 10/4 600 м
[Cu Sc Ac As Cs]
+27.0 +25.6 92 +40 +41 очень
душно
1007.8 1002.4
12 11.06 СВ 3 10 км 10/4 600 м
[Cu Sc Ac As Cs]
+27.0 +24.0 84 +37 +37 очень
душно
1007.3 1001.9 +32.2
15 11.06 СВ 3 10 км 10/5 600 м
[Cu Sc Ac As Cs]
+26.5 +25.1 92 +38 +38 очень
душно
1008.4 1003.0
03 12.06 ЮВ 2 20 км 8/3 600 м
[Cu med, cong As trans Cs]
+32.0 +26.5 73 +49 +55 опасность
перегрева
1009.9 1004.6
06 12.06 ЮЗ 3 20 км 8/3 600 м
[Cu med, cong As trans Cs]
+34.0 +27.0 67 +52 +60 опасность
перегрева
1009.1 1003.8
09 12.06 ЮЗ 5 10 км 10/4 600 м
[Cu Sc Ac As Cs]
+34.0 +27.0 67 +52 +53 опасность
перегрева
1007.8 1002.5
12 12.06 ЮЗ 3 10 км 10/4 600 м
[Cu Sc Ac As Cs]
+30.0 +25.3 76 +44 +44 опасность
перегрева
1007.3 1002.0 +34.2
15 12.06 ЮЗ 2 10 км 10/4 600 м
[Cu Sc Ac As Cs]
+29.0 +25.9 83 +43 +43 опасность
перегрева
1009.1 1003.7
00 13.06 Ю 1 10 км 10/5 600 м
[Cu Sc Ac As Cs]
+27.4 +24.5 84 +39 +39 очень
душно
1008.3 1002.9 +21.2
03 13.06 Ю 2 10 км 10/4 600 м
[Cu Sc Ac As Cs]
+32.0 +28.1 80 +53 +57 опасность
перегрева
1010.8 1005.5
06 13.06 ЮЗ 5 10 км 10/4 600 м
[Cu Sc Ac As Cs]
+33.5 +25.7 64 +49 +52 опасность
перегрева
1008.6 1003.3
09 13.06 ЮЗ 2 4000 м в посл. час дождь {морось} 10/8 300 м
[Frnb Ac As]
+28.5 +28.5 100 +48 +49 опасность
перегрева
1007.6 1002.2
12 13.06 Ю 3 4000 м {морось} 10/8 300 м
[Frnb Ac As]
+27.0 +27.0 100 +42 +42 опасность
перегрева
1007.8 1002.4 +33.7 11
15 13.06 ЮЗ 3 4000 м слаб. морось 10/8 300 м
[Frnb Ac As]
+26.5 +26.5 100 +40 +40 очень
душно
1009.8 1004.4
00 14.06 ЮЗ 1 10 км 10/5 600 м
[Cu Sc Ac As Cs]
+26.5 +25.1 92 +38 +38 очень
душно
1008.1 1002.7 +19.5 1
03 14.06 Ю 2 20 км 8/3 600 м
[Cu med, cong As trans Cs]
+31.0 +26.7 78 +48 +54 опасность
перегрева
1009.4 1004.1
06 14.06 ЮЗ 2 20 км 8/3 600 м
[Cu med, cong As trans Cs]
+33.0 +25.8 66 +48 +58 опасность
перегрева
1009.8 1004.5
09 14.06 З 3 10 км {морось} 10/4 600 м
[Cu Sc Ac As Cs]
+31.5 +28.1 82 +52 +54 опасность
перегрева
1008.1 1002.8
12 14.06 ЮЗ 8 10 км в посл. час дождь {морось} 10/5 600 м
[Cu Sc Ac As Cs]
+27.0 +25.6 92 +40 +40 очень
душно
1007.6 1002.2 +33.2 2
15 14.06 Ю 2 10 км {морось} 10/5 600 м
[Cu Sc Ac As Cs]
+27.0 +25.6 92 +40 +40 очень
душно
1008.8 1003.4
00 15.06 ЮЗ 3 20 км 8/3 600 м
[Cu med, cong As trans Cs]
+28.2 +25.0 83 +41 +41 опасность
перегрева
1008.9 1003.5 +21.0 4
03 15.06 ЮЗ 3 10 км 10/4 600 м
[Cu Sc Ac As Cs]
+32.0 +26.5 73 +49 +52 опасность
перегрева
1010.3 1005.0
06 15.06 ЮЗ 3 20 км 8/3 600 м
[Cu med, cong As trans Cs]
+34.0 +27.0 67 +52 +60 опасность
перегрева
1009.6 1004.3
09 15.06 З 3 10 км 10/4 600 м
[Cu Sc Ac As Cs]
+32.0 +28.1 80 +53 +55 опасность
перегрева
1007.1 1001.8
12 15.06 Ю 3 10 км {морось} 10/5 600 м
[Cu Sc Ac As Cs]
+29.0 +27.4 91 +47 +47 опасность
перегрева
1007.3 1002.0 +34.2 1
15 15.06 ЮЗ 3 4000 м слаб. морось 10/8 300 м
[Frnb Ac As]
+27.0 +27.0 100 +42 +42 опасность
перегрева
1008.6 1003.2
00 16.06 ЮЗ 3 10 км 10/5 600 м
[Cu Sc Ac As Cs]
+28.5 +25.4 83 +42 +42 опасность
перегрева
1008.0 1002.6 +21.0 1
03 16.06 ЮЗ 5 10 км 10/5 600 м
[Cu Sc Ac As Cs]
+29.5 +25.6 80 +44 +46 опасность
перегрева
1010.3 1005.0
06 16.06 З 3 10 км 10/4 600 м
[Cu Sc Ac As Cs]
+33.0 +27.5 73 +52 +57 опасность
перегрева
1009.6 1004.3
09 16.06 ЮЗ 3 10 км 10/4 600 м
[Cu Sc Ac As Cs]
+32.0 +26.5 73 +49 +51 опасность
перегрева
1007.3 1002.0
12 16.06 ЮЗ 5 10 км {морось} 10/5 600 м
[Cu Sc Ac As Cs]
+29.0 +25.9 83 +43 +43 опасность
перегрева
1007.3 1002.0 +33.2 5
15 16.06 ЮЗ 2 10 км 10/5 600 м
[Cu Sc Ac As Cs]
+28.0 +26.8 93 +44 +44 опасность
перегрева
1009.6 1004.2
00 17.06 ЮЗ 10 4000 м слаб. морось 10/8 300 м
[Frnb Ac As]
+25.0 +25.0 100 +36 +36 очень
душно
1009.4 1004.0 +19.0 17

 

Местоположение метеостанции Виктория-Пойнт (Мьянма): широта 9.97 долгота 98.58 высота над уровнем моря 47 м.

В архиве по умолчанию представлена погода в Виктория-Пойнт за последнюю неделю. Архивные данные за месяц целиком и за предыдущие месяцы, начиная с января 2011 года, Вы можете получить, выбрав интересующий диапазон дат из раскрывающегося списка и нажав кнопку "Ввод!".


*Определитесь, кто Вы:
робот инопланетянин человек

Внимание! Время в таблицах - всемирное. Для получения местного времени необходимо прибавить поправку, которая равна 6.5 ч.

Смотрите также архив погоды в соседних городах и на ближайших метеорологических станциях:

Погода в Ранонге (Таиланд) (5 км)
Погода в Сави Агромете (Таиланд) (70 км)
Погода в Чумпхоне (Таиланд) (87 км)
Погода в Сураттхани (Таиланд) (113 км)
Погода в Такуа Па (Таиланд) (148 км)
Погода в Сураттхани Агромете (Таиланд) (150 км)
Погода в Самуи (Таиланд) (170 км)
Погода в Прасанге (Таиланд) (172 км)
Погода в Чаванге (Таиланд) (199 км)
Погода в Хуайсае (Лаос) (206 км)

Пояснения к столбцам:

Ветер - указаны скорость ветра в м/с - средняя за 10 мин, порывы в срок и между сроками (в фигурных скобках) и направление, откуда дует ветер: С - северный, СВ - северо-восточный, В - восточный, ЮВ - юго-восточный, Ю - южный, ЮЗ - юго-западный, З - западный, СЗ - северо-западный.
Видимость - горизонтальная дальность видимости в метрах или километрах. При видимости от 1 до 10 км при отсутствии осадков обычно наблюдается дымка, при ухудшении видимости до 1 км и менее - туман. В сухую погоду видимость может ухудшаться дымом, пылью или мглою.
Явления - указаны атмосферные явления, наблюдавшиеся в срок или в последний час перед сроком; фигурными скобками обозначены явления, наблюдавшиеся между сроками (за 1-3 часа до срока); квадратными скобками обозначены град или гололедные отложения с указанием их диаметра в мм.
Облачность - указаны через наклонную черту общая и нижняя облачность в баллах и высота нижней границы облаков в метрах; квадратными скобками обозначены формы облаков: Ci - перистые, Cs - перисто-слоистые, Cc - перисто-кучевые, Ac - высококучевые, As - высокослоистые, Sc - слоисто-кучевые, Ns - слоисто-дождевые, Cu - кучевые, Cb - кучево-дождевые. Подробнее классификацию облаков см. в Атласе облаков (PDF).
T - Температура воздуха - температура, измеренная на высоте 2 м над землей.
Td - Температура точки росы - температура, при понижении до которой содержащийся в воздухе водяной пар достигнет насыщения.
f - Относительная влажность воздуха - влажноcть воздуха, измеренная на высоте 2 м над землей.
Te - Эффективная температура - температура, которую ощущает одетый по сезону человек в тени. Характеристика душности погоды. При расчете учитывается влияние влажности воздуха и скорости ветра на теплоощущения человека.
Tes - Эффективная температура на солнце - температура, которую ощущает человек, с поправкой на солнечный нагрев. Характеристика знойности погоды. Зависит от высоты солнца над горизонтом, облачности и скорости ветра. Ночью, в пасмурную погоду, а также при ветре 12 м/с и более поправка равна нулю.
P - Атмосферное давление - приведенное к уровню моря атмосферное давление.
Po - Атмосферное давление - измеренное на уровне метеостанции атмосферное давление.
Tmin - Минимальная температура - минимум температуры воздуха на высоте 2 м над землей.
Tmax - Максимальная температура - максимум температуры воздуха на высоте 2 м над землей.
R - Количество осадков - Количество выпавших осадков за период времени, мм. При наведении курсора мыши на число - период времени, за который выпало указанное количество осадков.
R24 - Количество осадков - Количество выпавших осадков за 24 часа, мм.
S - Снежный покров - Высота снежного покрова, см. При наведении курсора мыши на число - состояние снежного покрова и степень покрытия местности в баллах.